Lid_Strength_Index
1 0 2 4 4 3 -0 0 0 0 -0 -0 -1 -0 -0 -0 -1 -1 -1 2 0 -1 -2 -2 -2 -2 -2 -2 -2 -1 -1 -1 -1 -1 -0 -0 0 0 1 1 2 2 3
2 2 1 0 1 4 5 4 0 0 1 0 0 -0 -0 -0 -1 -1 -1 -1 1 -0 -1 -2 -2 -2 -2 -2 -2 -2 -2 -1 -1 -0 -0 -0 1 1 1 2 2 3 3
3 3 2 1 0 1 3 5 6 0 1 1 1 0 -0 -0 -0 -0 -1 -1 -1 1 -0 -1 -2 -2 -2 -2 -2 -2 -2 -1 -0 -0 -0 0 1 1 2 2 3 3 4
3 3 3 3 1 1 2 2 5 6 1 1 1 1 0 -0 -0 -0 -0 -1 -1 -1 -0 -1 -1 -2 -2 -2 -2 -2 -2 -1 -1 -0 0 1 1 2 2 2 3 3 4
4 4 4 3 2 1 2 2 3 5 6 2 1 1 1 1 0 -0 -0 -0 -0 -1 -1 -0 0 -0 -1 -2 -2 -2 -2 -2 -1 -0 0 0 1 2 2 3 3 3 4
6 5 5 4 3 2 1 2 3 3 4 5 4 2 1 1 1 0 0 0 -0 -1 -1 -0 0 0 1 -1 -2 -2 -2 -2 -1 -0 0 1 1 2 2 3 3 3 4
7 7 6 6 5 4 3 2 2 3 4 4 6 4 2 2 1 1 1 1 1 -0 -1 -0 -0 0 1 0 -1 -2 -2 -2 -1 -0 0 1 1 2 2 3 3 3 4
8 8 7 7 6 6 5 4 3 3 3 3 5 5 7 7 8 2 1 2 1 1 0 0 0 0 -0 0 0 -1 -2 -2 -2 -0 0 1 1 2 2 2 2 3 4
8 8 8 7 7 6 7 6 5 5 4 3 3 4 6 7 6 10 9 6 2 2 1 0 0 0 1 0 0 0 -0 -1 -1 -1 -0 1 1 2 2 2 2 4 4
9 9 9 8 8 7 7 6 6 5 4 4 3 3 2 5 7 11 12 11 10 5 2 2 1 1 0 0 2 3 3 1 1 1 0 0 1 1 2 2 3 4 4
9 9 9 9 8 8 7 7 6 6 5 4 4 3 3 6 6 8 10 11 13 11 7 4 4 3 1 1 1 2 3 2 2 2 2 1 1 2 2 2 3 3 4
10 9 9 9 9 9 8 8 7 6 5 5 4 3 4 4 5 5 6 6 8 10 10 9 5 6 5 2 3 4 4 3 2 2 2 3 2 2 2 2 3 3 4
11 10 10 10 9 9 9 8 8 7 7 6 5 4 3 3 2 3 4 8 8 12 13 10 9 6 7 7 5 7 6 4 3 3 3 3 3 3 3 3 3 4 4
11 10 10 10 9 9 9 8 8 8 7 7 7 5 4 3 2 5 5 9 14 15 15 12 11 10 8 8 8 10 5 6 4 3 3 3 3 3 4 4 4 5 5
11 11 10 10 9 9 9 8 8 8 7 6 6 6 5 2 2 3 3 6 8 13 12 14 13 13 11 10 9 9 9 7 5 3 3 3 4 4 4 4 5 6 6
12 11 11 10 10 9 9 9 8 9 9 8 6 5 5 3 3 3 4 4 5 6 8 8 14 15 14 15 11 10 9 9 7 5 4 4 5 5 5 6 6 7 7
13 12 11 11 11 10 9 9 8 9 10 9 8 7 5 3 3 3 3 3 3 5 9 15 15 15 16 15 13 15 12 10 7 7 6 5 6 6 6 7 8 8 8
13 12 12 12 11 10 9 9 10 10 10 10 9 7 7 5 4 3 3 3 4 6 12 15 16 16 16 15 16 16 16 15 12 9 7 7 8 8 8 9 9 10 10
13 12 12 12 12 11 11 9 9 9 9 8 8 7 7 5 5 6 3 4 5 11 11 14 15 15 16 15 16 16 16 16 14 10 9 10 10 10 10 10 11 11 11
13 12 12 12 12 12 11 10 10 9 9 9 8 8 8 7 7 6 5 6 9 11 13 13 15 15 15 16 15 17 17 16 17 16 15 14 13 13 12 12 13 13 13
13 12 13 12 12 12 11 10 10 10 9 9 9 9 9 9 9 7 7 8 9 9 12 13 17 17 17 18 17 17 19 21 21 17 17 17 16 16 15 14 14 14 14
13 13 13 13 12 12 10 9 9 10 10 10 10 10 10 10 9 8 7 7 7 9 13 15 16 17 17 17 17 19 20 19 21 19 19 22 19 19 18 17 14 13 14
14 14 14 13 12 12 9 10 10 11 11 10 10 10 11 12 11 11 9 9 10 9 10 12 14 15 17 16 17 18 18 18 21 21 20 23 21 21 20 18 15 14 15
14 14 13 13 13 12 10 10 11 12 13 13 12 12 12 13 12 12 13 14 14 14 13 13 13 14 14 16 17 17 19 23 22 22 20 23 23 21 21 20 17 16 16
14 14 14 13 13 12 11 11 12 13 13 14 13 13 13 13 12 12 14 14 15 15 12 12 13 13 14 15 19 20 21 21 24 23 23 22 23 22 22 21 19 16 14
14 14 15 14 13 13 12 12 13 14 15 14 13 13 13 12 12 13 14 14 16 16 15 15 15 15 16 16 16 17 18 19 23 23 22 23 23 21 21 21 20 19 18